DK4ARL Weather Reports


time (UTC)temp
C
wind
direction
speed
KPH
gust
KPH
rain 1hr
cm
rain 24hr
cm
rain mn
cm
humidity
%
barometer
mb
20260507135253 12 0.0 0.0 0.00 0.64 0.00 978.5
20260507132315 12 0.0 0.0 0.00 0.64 0.00 978.5
20260507130827 12 0.0 0.0 0.00 0.64 0.00 978.4
20260507125339 12 0.0 0.0 0.00 0.64 0.00 978.4
20260507123852 12 0.0 0.0 0.00 0.64 0.00 978.3
20260507122406 12 0.0 0.0 0.00 0.64 0.00 978.2
20260507120919 11 0.0 0.0 0.00 0.64 0.00 978.2
20260507115444 11 0.0 0.0 0.00 0.64 0.00 978.2
20260507113959 12 0.0 0.0 0.00 0.64 0.00 978.2
20260507112514 12 0.0 0.0 0.00 0.64 0.00 978.1
20260507111031 11 0.0 0.0 0.00 0.64 0.00 978.1
20260507105548 12 0.0 0.0 0.00 0.64 0.00 978.0
20260507104106 12 0.0 0.0 0.00 0.64 0.00 978.0
20260507102624 11 0.0 0.0 0.00 0.64 0.00 977.9
20260507101143 11 0.0 0.0 0.00 0.64 0.00 977.8
20260507095701 11 0.0 0.0 0.00 0.64 0.00 977.7
20260507094221 11 0.0 0.0 0.00 0.64 0.00 977.6
20260507092740 10 0.0 0.0 0.00 0.64 0.00 977.4
20260507091300 10 0.0 0.0 0.00 0.64 0.00 977.3
20260507085820 11 0.0 0.0 0.00 0.64 0.00 977.2
20260507084340 10 0.0 0.0 0.00 0.64 0.00 977.0
20260507082901 10 0.0 0.0 0.00 0.64 0.00 976.9
20260507081422 9 0.0 0.0 0.00 0.64 0.00 976.7
20260507074509 9 0.0 0.0 0.00 0.61 0.00 976.4
20260507071553 9 0.0 0.0 0.00 0.61 0.00 976.1
20260507064636 9 0.0 0.0 0.00 0.61 0.00 975.8
20260507061721 9 0.0 0.0 0.03 0.61 0.00 975.5
20260507054813 9 0.0 0.0 0.00 0.58 0.00 975.1
20260507053335 9 0.0 0.0 0.00 0.58 0.00 975.0
20260507051853 9 0.0 0.0 0.05 0.58 0.00 974.8
20260507044939 9 0.0 0.0 0.03 0.56 0.00 974.4
20260507043509 9 0.0 0.0 0.00 0.53 0.00 974.3
20260507042027 9 0.0 0.0 0.05 0.53 0.00 974.1
20260507040549 10 0.0 0.0 0.05 0.53 0.00 974.0
20260507035110 10 0.0 0.0 0.03 0.51 0.00 973.9
20260507033633 10 0.0 0.0 0.00 0.48 0.00 973.8
20260507032158 10 0.0 0.0 0.05 0.46 0.00 973.7
20260507030721 10 0.0 0.0 0.05 0.46 0.00 973.6
20260507025243 10 0.0 0.0 0.03 0.43 0.00 973.6
20260507023806 10 0.0 0.0 0.00 0.41 0.00 973.5
20260507022326 10 0.0 0.0 0.05 0.41 0.00 973.5
20260507020848 10 0.0 0.0 0.03 0.38 0.00 973.5
20260507015410 10 0.0 0.0 0.03 0.38 0.00 973.4
20260507013933 10 0.0 0.0 0.00 0.36 0.00 973.4
20260507012500 10 0.0 0.0 0.00 0.36 0.00 973.4
20260507011021 10 0.0 0.0 0.00 0.36 0.00 973.4
20260507005543 10 0.0 0.0 0.00 0.36 0.00 973.4
20260507004104 10 0.0 0.0 0.00 0.36 0.00 973.4
20260506232752 11 0.0 0.0 0.00 0.36 0.00 973.3
20260506231310 11 0.0 0.0 0.00 0.36 0.00 973.2
20260506224352 11 0.0 0.0 0.00 0.33 0.00 973.0
20260506213038 11 0.0 0.0 0.10 0.23 0.00 972.6
20260506204627 11 0.0 0.0 0.00 0.15 0.00 972.2
20260506203147 11 0.0 0.0 0.08 0.13 0.00 972.1
20260506201706 12 0.0 0.0 0.05 0.10 0.00 972.0
20260506193253 12 0.0 0.0 0.00 0.05 0.00 971.4
20260506191819 12 0.0 0.0 0.00 0.03 0.00 971.2
20260506184845 12 0.0 0.0 0.00 0.03 0.00 970.9
20260506180427 12 0.0 0.0 0.00 0.00 0.00 970.6
20260506170521 12 0.0 0.0 0.00 0.05 0.00 970.4
20260506163542 13 0.0 0.0 0.00 0.05 0.00 970.2
20260506162047 13 0.0 0.0 0.00 0.05 0.00 970.1
20260506153612 13 0.0 0.0 0.00 0.05 0.00 969.8
20260506150623 13 0.0 0.0 0.00 0.08 0.00 969.6
20260506145127 14 0.0 0.0 0.00 0.05 0.00 969.4
20260506140626 18 0.0 0.0 0.00 0.08 0.00 969.0